« Back
NWS Peachtree City, Ga » Text Product » GA Regional Weather Roundup


Printer-friendly Version
Current Version              Previous Versions:   1  2  3  4  5  6  7  8  9  

Regional Weather Roundup

411
ASUS42 KFFC 252003
RWRGA
WEATHER ROUNDUP FOR GEORGIA
NATIONAL WEATHER SERVICE PEACHTREE CITY GA
400 PM EDT THU AUG 25 2016

NOTE: "FAIR" INDICATES FEW OR NO CLOUDS BELOW 12,000 FEET WITH NO
SIGNIFICANT WEATHER AND/OR OBSTRUCTIONS TO VISIBILITY.

* = USE WITH CAUTION. THE STATIONS MARKED WITH AN ASTERISK MAY NOT
REPORT WEATHER SUCH AS PRECIPITATION, FOG, OR THUNDER AND ARE NOT
QUALITY CONTROLLED BY NWS.

THE REMARK "TC" DENOTES TEMPERATURE READING IN DEGREES CELSIUS.

GAZ001>058-252100-
NORTH GEORGIA

CITY           SKY/WX    TMP DP  RH WIND       PRES   REMARKS
ATLANTA        MOSUNNY   89  71  55 W5        30.13F HX  95
ATHENS         MOSUNNY   91  71  51 NE5       30.13F HX  97
CHAMBLEE       PTSUNNY   92  68  45 CALM      30.13F HX  96
PEACHTREE CITY MOSUNNY   88  70  55 NW8       30.14F HX  93
ROME           SUNNY     92  68  45 E3        30.10F HX  96
WEST ATLANTA   PTSUNNY   90  68  48 E6        30.12F HX  94
GAINESVILLE    MOSUNNY   90  69  50 E3        30.17F HX  94
CARTERSVILLE   MOSUNNY   93  68  43 CALM      30.12F HX  97


CITY           SKY/WX    TMP DP  RH WIND       PRES   REMARKS
DALTON*        SUNNY     91  68  46 CALM      30.12F HX  95
LAWRENCEVILLE* MOSUNNY   91  73  55 VRB6      30.14F HX 100
MARIETTA       PTSUNNY   90  70  52 VRB1      30.13F HX  96
CANTON*        PTSUNNY   91  57  31 CALM      30.16F HX  90
BLAIRSVILLE*     N/A    N/A N/A N/A MISG      30.19F
$$

GAZ059>098-102>109-252100-
CENTRAL GEORGIA

CITY           SKY/WX    TMP DP  RH WIND       PRES   REMARKS
AUGUSTA-BUSH   MOSUNNY   93  68  43 NE6       30.08F HX  97
AUGUSTA-DANIEL MOSUNNY   93  67  42 VRB3      30.11F HX  96
COLUMBUS       PTSUNNY   91  68  46 CALM      30.09F HX  95
MACON          SUNNY     94  67  41 VRB6      30.10F HX  97
ROBINS AFB     MOSUNNY   92  70  49 VRB3      30.08F HX  97


CITY           SKY/WX    TMP DP  RH WIND       PRES   REMARKS
LAGRANGE*      MOSUNNY   92  74  54 E5        30.11F HX 102
MILLEDGEVILLE* SUNNY     91  72  52 NE3       30.10F HX  98
$$

GAZ099>101-110>166-252100-
SOUTH GEORGIA

CITY           SKY/WX    TMP DP  RH WIND       PRES   REMARKS
SAVANNAH       MOSUNNY   93  64  38 VRB3      30.07F HX  94
VALDOSTA       MOSUNNY   90  66  45 NE12G23   30.06F HX  92
ALMA           SUNNY     90  66  45 VRB6      30.08F HX  92
ST SIMONS      MOSUNNY   87  72  60 NE10G21   30.08F HX  93
FT STEWART     MOSUNNY   90  67  45 E7        30.04F HX  93
ALBANY         SUNNY     93  66  40 E17G24    30.09F HX  96
HUNTER AFB     SUNNY     89  75  62 E12       30.05F HX 100
MOODY AFB      MOSUNNY   89  65  45 E10G18    30.05F HX  91
BRUNSWICK      MOSUNNY   88  73  62 E17       30.08F HX  96


CITY           SKY/WX    TMP DP  RH WIND       PRES   REMARKS
BAINBRIDGE*    SUNNY     95  68  41 NE12G17   30.06F HX  99
MOULTRIE*      MOSUNNY   91  63  38 NE7       30.08F HX  92
VIDALIA*       SUNNY     93  68  43 NE8       30.09F HX  97
WAYCROSS*        N/A     93  71  47 E9        30.07F HX  99
DOUGLAS*       SUNNY     90  59  35 NE9       30.10F
$$




USA.gov is the U.S. government's official web portal to all federal, state and local government web resources and services.